Location: Newark
(48.1500°N, 2.9667°W)
Time: 18:02:26
(UTC+00:00)

Altair - Pass Details

Date: 04 February 2020
Orbit: 1502 x 1682 km, 47.2° (Epoch: 22 February)

Event Time Altitude Azimuth Distance (km) Brightness Sun altitude
Rises 05:37:30 0° 217° (SW) 4,790 9.8 -20.1°
Reaches altitude 10° 05:40:43 10° 211° (SSW) 3,832 9.3 -19.6°
Maximum altitude 05:49:51 46° 143° (SE) 2,127 8.5 -18.0°
Drops below altitude 10° 05:59:14 10° 75° (ENE) 3,942 10.7 -16.5°
Sets 06:02:35 0° 70° (ENE) 4,939 11.3 -15.9°
